owner,sensor,date,latitude,longitude,relative_humidity,qcFlag 
COMPS,ioos:station:USF.COMPS:BGC:1,2016-04-01T00:00:00Z,26.4040,-81.8810,75.79,1111122 
COMPS,ioos:station:USF.COMPS:BGC:1,2016-04-01T00:06:00Z,26.4040,-81.8810,73.9,1111122 
COMPS,ioos:station:USF.COMPS:BGC:1,2016-04-01T00:12:00Z,26.4040,-81.8810,76.99,1111122 
COMPS,ioos:station:USF.COMPS:BGC:1,2016-04-01T00:18:00Z,26.4040,-81.8810,77.77,1111122 
COMPS,ioos:station:USF.COMPS:BGC:1,2016-04-01T00:24:00Z,26.4040,-81.8810,78.07,1111122 
COMPS,ioos:station:USF.COMPS:BGC:1,2016-04-01T00:30:00Z,26.4040,-81.8810,79.35,1111122 
COMPS,ioos:station:USF.COMPS:BGC:1,2016-04-01T00:36:00Z,26.4040,-81.8810,80.02,1111122 
COMPS,ioos:station:USF.COMPS:BGC:1,2016-04-01T00:42:00Z,26.4040,-81.8810,80.22,1111122 
COMPS,ioos:station:USF.COMPS:BGC:1,2016-04-01T00:48:00Z,26.4040,-81.8810,80.1,1111122 
COMPS,ioos:station:USF.COMPS:BGC:1,2016-04-01T00:54:00Z,26.4040,-81.8810,80.25,1111122 
COMPS,ioos:station:USF.COMPS:BGC:1,2016-04-01T01:00:00Z,26.4040,-81.8810,80.24,1111122 
COMPS,ioos:station:USF.COMPS:BGC:1,2016-04-01T01:06:00Z,26.4040,-81.8810,80.34,1111122 
COMPS,ioos:station:USF.COMPS:BGC:1,2016-04-01T01:12:00Z,26.4040,-81.8810,80.89,1111122 
COMPS,ioos:station:USF.COMPS:BGC:1,2016-04-01T01:18:00Z,26.4040,-81.8810,82.73,1111122 
COMPS,ioos:station:USF.COMPS:BGC:1,2016-04-01T01:24:00Z,26.4040,-81.8810,84.5,1111122 
COMPS,ioos:station:USF.COMPS:BGC:1,2016-04-01T01:30:00Z,26.4040,-81.8810,87.24,1111122 
COMPS,ioos:station:USF.COMPS:BGC:1,2016-04-01T01:36:00Z,26.4040,-81.8810,88.65,1111122 
COMPS,ioos:station:USF.COMPS:BGC:1,2016-04-01T01:42:00Z,26.4040,-81.8810,88.99,1111122 
COMPS,ioos:station:USF.COMPS:BGC:1,2016-04-01T01:48:00Z,26.4040,-81.8810,89.57,1111122 
COMPS,ioos:station:USF.COMPS:BGC:1,2016-04-01T01:54:00Z,26.4040,-81.8810,89.9,1111122 
COMPS,ioos:station:USF.COMPS:BGC:1,2016-04-01T02:00:00Z,26.4040,-81.8810,89.99,1111122 
COMPS,ioos:station:USF.COMPS:BGC:1,2016-04-01T02:06:00Z,26.4040,-81.8810,90.06,1111122 
COMPS,ioos:station:USF.COMPS:BGC:1,2016-04-01T02:12:00Z,26.4040,-81.8810,90.07,1111122 
COMPS,ioos:station:USF.COMPS:BGC:1,2016-04-01T02:18:00Z,26.4040,-81.8810,90.44,1111122 
COMPS,ioos:station:USF.COMPS:BGC:1,2016-04-01T02:24:00Z,26.4040,-81.8810,91.32,1111122 
COMPS,ioos:station:USF.COMPS:BGC:1,2016-04-01T02:30:00Z,26.4040,-81.8810,92.08,1111122 
COMPS,ioos:station:USF.COMPS:BGC:1,2016-04-01T02:36:00Z,26.4040,-81.8810,92.83,1111122 
COMPS,ioos:station:USF.COMPS:BGC:1,2016-04-01T02:42:00Z,26.4040,-81.8810,93.69,1111122 
COMPS,ioos:station:USF.COMPS:BGC:1,2016-04-01T02:48:00Z,26.4040,-81.8810,94.26,1111122 
COMPS,ioos:station:USF.COMPS:BGC:1,2016-04-01T02:54:00Z,26.4040,-81.8810,94.57,1111122 
COMPS,ioos:station:USF.COMPS:BGC:1,2016-04-01T03:00:00Z,26.4040,-81.8810,94.7,1111122 
COMPS,ioos:station:USF.COMPS:BGC:1,2016-04-01T03:06:00Z,26.4040,-81.8810,94.66,1111122 
COMPS,ioos:station:USF.COMPS:BGC:1,2016-04-01T03:12:00Z,26.4040,-81.8810,94.62,1111122 
COMPS,ioos:station:USF.COMPS:BGC:1,2016-04-01T03:18:00Z,26.4040,-81.8810,94.41,1111122 
COMPS,ioos:station:USF.COMPS:BGC:1,2016-04-01T03:24:00Z,26.4040,-81.8810,93.67,1111122 
COMPS,ioos:station:USF.COMPS:BGC:1,2016-04-01T03:30:00Z,26.4040,-81.8810,93.51,1111122 
COMPS,ioos:station:USF.COMPS:BGC:1,2016-04-01T03:36:00Z,26.4040,-81.8810,93.1,1111122 
COMPS,ioos:station:USF.COMPS:BGC:1,2016-04-01T03:42:00Z,26.4040,-81.8810,92.92,1111122 
COMPS,ioos:station:USF.COMPS:BGC:1,2016-04-01T03:48:00Z,26.4040,-81.8810,92.69,1111122 
COMPS,ioos:station:USF.COMPS:BGC:1,2016-04-01T03:54:00Z,26.4040,-81.8810,92.37,1111122 
COMPS,ioos:station:USF.COMPS:BGC:1,2016-04-01T04:00:00Z,26.4040,-81.8810,92.46,1111122 
COMPS,ioos:station:USF.COMPS:BGC:1,2016-04-01T04:06:00Z,26.4040,-81.8810,92.85,1111122 
COMPS,ioos:station:USF.COMPS:BGC:1,2016-04-01T04:12:00Z,26.4040,-81.8810,93.06,1111122 
COMPS,ioos:station:USF.COMPS:BGC:1,2016-04-01T04:18:00Z,26.4040,-81.8810,93.02,1111122 
COMPS,ioos:station:USF.COMPS:BGC:1,2016-04-01T04:24:00Z,26.4040,-81.8810,92.88,1111122 
COMPS,ioos:station:USF.COMPS:BGC:1,2016-04-01T04:30:00Z,26.4040,-81.8810,92.7,1111122 
COMPS,ioos:station:USF.COMPS:BGC:1,2016-04-01T04:36:00Z,26.4040,-81.8810,92.67,1111122 
COMPS,ioos:station:USF.COMPS:BGC:1,2016-04-01T04:42:00Z,26.4040,-81.8810,92.71,1111122 
COMPS,ioos:station:USF.COMPS:BGC:1,2016-04-01T04:48:00Z,26.4040,-81.8810,92.93,1111122 
COMPS,ioos:station:USF.COMPS:BGC:1,2016-04-01T04:54:00Z,26.4040,-81.8810,92.87,1111122 
COMPS,ioos:station:USF.COMPS:BGC:1,2016-04-01T05:00:00Z,26.4040,-81.8810,92.52,1111122 
COMPS,ioos:station:USF.COMPS:BGC:1,2016-04-01T05:06:00Z,26.4040,-81.8810,92.24,1111122 
COMPS,ioos:station:USF.COMPS:BGC:1,2016-04-01T05:12:00Z,26.4040,-81.8810,91.86,1111122 
COMPS,ioos:station:USF.COMPS:BGC:1,2016-04-01T05:18:00Z,26.4040,-81.8810,91.32,1111122 
COMPS,ioos:station:USF.COMPS:BGC:1,2016-04-01T05:24:00Z,26.4040,-81.8810,91.27,1111122 
COMPS,ioos:station:USF.COMPS:BGC:1,2016-04-01T05:30:00Z,26.4040,-81.8810,91.43,1111122 
COMPS,ioos:station:USF.COMPS:BGC:1,2016-04-01T05:36:00Z,26.4040,-81.8810,91.7,1111122 
COMPS,ioos:station:USF.COMPS:BGC:1,2016-04-01T05:42:00Z,26.4040,-81.8810,91.96,1111122 
COMPS,ioos:station:USF.COMPS:BGC:1,2016-04-01T05:48:00Z,26.4040,-81.8810,92.05,1111122 
COMPS,ioos:station:USF.COMPS:BGC:1,2016-04-01T05:54:00Z,26.4040,-81.8810,92.48,1111122 
COMPS,ioos:station:USF.COMPS:BGC:1,2016-04-01T06:00:00Z,26.4040,-81.8810,93.01,1111122 
COMPS,ioos:station:USF.COMPS:BGC:1,2016-04-01T06:06:00Z,26.4040,-81.8810,93.45,1111122 
COMPS,ioos:station:USF.COMPS:BGC:1,2016-04-01T06:12:00Z,26.4040,-81.8810,94.06,1111122 
COMPS,ioos:station:USF.COMPS:BGC:1,2016-04-01T06:18:00Z,26.4040,-81.8810,94.78,1111122 
COMPS,ioos:station:USF.COMPS:BGC:1,2016-04-01T06:24:00Z,26.4040,-81.8810,95.3,1111122 
COMPS,ioos:station:USF.COMPS:BGC:1,2016-04-01T06:30:00Z,26.4040,-81.8810,95.83,1111122 
COMPS,ioos:station:USF.COMPS:BGC:1,2016-04-01T06:36:00Z,26.4040,-81.8810,96.16,1111122 
COMPS,ioos:station:USF.COMPS:BGC:1,2016-04-01T06:42:00Z,26.4040,-81.8810,96.37,1111122 
COMPS,ioos:station:USF.COMPS:BGC:1,2016-04-01T06:48:00Z,26.4040,-81.8810,96.53,1111122 
COMPS,ioos:station:USF.COMPS:BGC:1,2016-04-01T06:54:00Z,26.4040,-81.8810,96.75,1111122 
COMPS,ioos:station:USF.COMPS:BGC:1,2016-04-01T07:00:00Z,26.4040,-81.8810,97.0,1111122 
COMPS,ioos:station:USF.COMPS:BGC:1,2016-04-01T07:06:00Z,26.4040,-81.8810,97.23,1111122 
COMPS,ioos:station:USF.COMPS:BGC:1,2016-04-01T07:12:00Z,26.4040,-81.8810,97.31,1111122 
COMPS,ioos:station:USF.COMPS:BGC:1,2016-04-01T07:18:00Z,26.4040,-81.8810,97.46,1111122 
COMPS,ioos:station:USF.COMPS:BGC:1,2016-04-01T07:24:00Z,26.4040,-81.8810,97.67,1111122 
COMPS,ioos:station:USF.COMPS:BGC:1,2016-04-01T07:30:00Z,26.4040,-81.8810,97.77,1111122 
COMPS,ioos:station:USF.COMPS:BGC:1,2016-04-01T07:36:00Z,26.4040,-81.8810,97.91,1111122 
COMPS,ioos:station:USF.COMPS:BGC:1,2016-04-01T07:42:00Z,26.4040,-81.8810,98.06,1111122 
COMPS,ioos:station:USF.COMPS:BGC:1,2016-04-01T07:48:00Z,26.4040,-81.8810,98.23,1111122 
COMPS,ioos:station:USF.COMPS:BGC:1,2016-04-01T07:54:00Z,26.4040,-81.8810,98.38,1111122 
COMPS,ioos:station:USF.COMPS:BGC:1,2016-04-01T08:00:00Z,26.4040,-81.8810,98.59,1111122 
COMPS,ioos:station:USF.COMPS:BGC:1,2016-04-01T08:06:00Z,26.4040,-81.8810,98.83,1111122 
COMPS,ioos:station:USF.COMPS:BGC:1,2016-04-01T08:12:00Z,26.4040,-81.8810,98.95,1111122 
COMPS,ioos:station:USF.COMPS:BGC:1,2016-04-01T08:18:00Z,26.4040,-81.8810,99.01,1111122 
COMPS,ioos:station:USF.COMPS:BGC:1,2016-04-01T08:24:00Z,26.4040,-81.8810,99.06,1111122 
COMPS,ioos:station:USF.COMPS:BGC:1,2016-04-01T08:30:00Z,26.4040,-81.8810,99.08,1111122 
COMPS,ioos:station:USF.COMPS:BGC:1,2016-04-01T08:36:00Z,26.4040,-81.8810,99.21,1111122 
COMPS,ioos:station:USF.COMPS:BGC:1,2016-04-01T08:42:00Z,26.4040,-81.8810,99.31,1111122 
COMPS,ioos:station:USF.COMPS:BGC:1,2016-04-01T08:48:00Z,26.4040,-81.8810,99.38,1111122 
COMPS,ioos:station:USF.COMPS:BGC:1,2016-04-01T08:54:00Z,26.4040,-81.8810,99.57,1111122 
COMPS,ioos:station:USF.COMPS:BGC:1,2016-04-01T09:00:00Z,26.4040,-81.8810,99.75,1111122 
COMPS,ioos:station:USF.COMPS:BGC:1,2016-04-01T09:06:00Z,26.4040,-81.8810,99.89,1111122 
COMPS,ioos:station:USF.COMPS:BGC:1,2016-04-01T09:12:00Z,26.4040,-81.8810,100.19,1111122 
COMPS,ioos:station:USF.COMPS:BGC:1,2016-04-01T09:18:00Z,26.4040,-81.8810,100.43,1111122 
COMPS,ioos:station:USF.COMPS:BGC:1,2016-04-01T09:24:00Z,26.4040,-81.8810,100.63,1111122 
COMPS,ioos:station:USF.COMPS:BGC:1,2016-04-01T09:30:00Z,26.4040,-81.8810,100.77,1111122 
COMPS,ioos:station:USF.COMPS:BGC:1,2016-04-01T09:36:00Z,26.4040,-81.8810,100.92,1111122 
COMPS,ioos:station:USF.COMPS:BGC:1,2016-04-01T09:42:00Z,26.4040,-81.8810,101.0,1111122 
COMPS,ioos:station:USF.COMPS:BGC:1,2016-04-01T09:48:00Z,26.4040,-81.8810,101.04,1111122 
COMPS,ioos:station:USF.COMPS:BGC:1,2016-04-01T09:54:00Z,26.4040,-81.8810,101.17,1111122 
COMPS,ioos:station:USF.COMPS:BGC:1,2016-04-01T10:00:00Z,26.4040,-81.8810,101.33,1111122 
COMPS,ioos:station:USF.COMPS:BGC:1,2016-04-01T10:06:00Z,26.4040,-81.8810,101.5,1111122 
COMPS,ioos:station:USF.COMPS:BGC:1,2016-04-01T10:12:00Z,26.4040,-81.8810,101.62,1111122 
COMPS,ioos:station:USF.COMPS:BGC:1,2016-04-01T10:18:00Z,26.4040,-81.8810,101.67,1111122 
COMPS,ioos:station:USF.COMPS:BGC:1,2016-04-01T10:24:00Z,26.4040,-81.8810,101.78,1111122 
COMPS,ioos:station:USF.COMPS:BGC:1,2016-04-01T10:30:00Z,26.4040,-81.8810,101.84,1111122 
COMPS,ioos:station:USF.COMPS:BGC:1,2016-04-01T10:36:00Z,26.4040,-81.8810,101.98,1111122 
COMPS,ioos:station:USF.COMPS:BGC:1,2016-04-01T10:42:00Z,26.4040,-81.8810,102.12,1111122 
COMPS,ioos:station:USF.COMPS:BGC:1,2016-04-01T10:48:00Z,26.4040,-81.8810,102.32,1111122 
COMPS,ioos:station:USF.COMPS:BGC:1,2016-04-01T10:54:00Z,26.4040,-81.8810,102.42,1111122 
COMPS,ioos:station:USF.COMPS:BGC:1,2016-04-01T11:00:00Z,26.4040,-81.8810,102.85,1111122 
COMPS,ioos:station:USF.COMPS:BGC:1,2016-04-01T11:06:00Z,26.4040,-81.8810,104.52,1111122 
COMPS,ioos:station:USF.COMPS:BGC:1,2016-04-01T11:12:00Z,26.4040,-81.8810,105.25,1111122 
COMPS,ioos:station:USF.COMPS:BGC:1,2016-04-01T11:18:00Z,26.4040,-81.8810,105.54,1111122 
COMPS,ioos:station:USF.COMPS:BGC:1,2016-04-01T11:24:00Z,26.4040,-81.8810,105.7,1111122 
COMPS,ioos:station:USF.COMPS:BGC:1,2016-04-01T11:30:00Z,26.4040,-81.8810,105.94,1111122 
COMPS,ioos:station:USF.COMPS:BGC:1,2016-04-01T11:36:00Z,26.4040,-81.8810,105.35,1111122 
COMPS,ioos:station:USF.COMPS:BGC:1,2016-04-01T11:42:00Z,26.4040,-81.8810,105.38,1111122 
COMPS,ioos:station:USF.COMPS:BGC:1,2016-04-01T11:48:00Z,26.4040,-81.8810,105.7,1111122 
COMPS,ioos:station:USF.COMPS:BGC:1,2016-04-01T11:54:00Z,26.4040,-81.8810,106.21,1111122 
COMPS,ioos:station:USF.COMPS:BGC:1,2016-04-01T12:00:00Z,26.4040,-81.8810,106.09,1111122 
COMPS,ioos:station:USF.COMPS:BGC:1,2016-04-01T12:06:00Z,26.4040,-81.8810,105.8,1111122 
COMPS,ioos:station:USF.COMPS:BGC:1,2016-04-01T12:12:00Z,26.4040,-81.8810,105.81,1111122 
COMPS,ioos:station:USF.COMPS:BGC:1,2016-04-01T12:18:00Z,26.4040,-81.8810,105.79,1111122 
COMPS,ioos:station:USF.COMPS:BGC:1,2016-04-01T12:24:00Z,26.4040,-81.8810,105.63,1111122 
COMPS,ioos:station:USF.COMPS:BGC:1,2016-04-01T12:30:00Z,26.4040,-81.8810,105.54,1111122 
COMPS,ioos:station:USF.COMPS:BGC:1,2016-04-01T12:36:00Z,26.4040,-81.8810,105.2,1111122 
COMPS,ioos:station:USF.COMPS:BGC:1,2016-04-01T12:42:00Z,26.4040,-81.8810,104.63,1111122 
COMPS,ioos:station:USF.COMPS:BGC:1,2016-04-01T12:48:00Z,26.4040,-81.8810,103.85,1111122 
COMPS,ioos:station:USF.COMPS:BGC:1,2016-04-01T12:54:00Z,26.4040,-81.8810,102.75,1111122 
COMPS,ioos:station:USF.COMPS:BGC:1,2016-04-01T13:00:00Z,26.4040,-81.8810,101.65,1111122 
COMPS,ioos:station:USF.COMPS:BGC:1,2016-04-01T13:06:00Z,26.4040,-81.8810,100.05,1111122 
COMPS,ioos:station:USF.COMPS:BGC:1,2016-04-01T13:12:00Z,26.4040,-81.8810,98.28,1111122 
COMPS,ioos:station:USF.COMPS:BGC:1,2016-04-01T13:18:00Z,26.4040,-81.8810,96.59,1111122 
COMPS,ioos:station:USF.COMPS:BGC:1,2016-04-01T13:24:00Z,26.4040,-81.8810,94.72,1111122 
COMPS,ioos:station:USF.COMPS:BGC:1,2016-04-01T13:30:00Z,26.4040,-81.8810,92.33,1111122 
COMPS,ioos:station:USF.COMPS:BGC:1,2016-04-01T13:36:00Z,26.4040,-81.8810,89.62,1111122 
COMPS,ioos:station:USF.COMPS:BGC:1,2016-04-01T13:42:00Z,26.4040,-81.8810,86.56,1111122 
COMPS,ioos:station:USF.COMPS:BGC:1,2016-04-01T13:48:00Z,26.4040,-81.8810,82.41,1111122 
COMPS,ioos:station:USF.COMPS:BGC:1,2016-04-01T13:54:00Z,26.4040,-81.8810,74.44,1111122 
COMPS,ioos:station:USF.COMPS:BGC:1,2016-04-01T14:00:00Z,26.4040,-81.8810,71.61,1111122 
COMPS,ioos:station:USF.COMPS:BGC:1,2016-04-01T14:06:00Z,26.4040,-81.8810,69.76,1111122 
COMPS,ioos:station:USF.COMPS:BGC:1,2016-04-01T14:12:00Z,26.4040,-81.8810,69.65,1111122 
COMPS,ioos:station:USF.COMPS:BGC:1,2016-04-01T14:18:00Z,26.4040,-81.8810,69.6,1111122 
COMPS,ioos:station:USF.COMPS:BGC:1,2016-04-01T14:24:00Z,26.4040,-81.8810,69.53,1111122 
COMPS,ioos:station:USF.COMPS:BGC:1,2016-04-01T14:30:00Z,26.4040,-81.8810,68.95,1111122 
COMPS,ioos:station:USF.COMPS:BGC:1,2016-04-01T14:36:00Z,26.4040,-81.8810,68.53,1111122 
COMPS,ioos:station:USF.COMPS:BGC:1,2016-04-01T14:42:00Z,26.4040,-81.8810,69.81,1111122 
COMPS,ioos:station:USF.COMPS:BGC:1,2016-04-01T14:48:00Z,26.4040,-81.8810,69.55,1111122 
COMPS,ioos:station:USF.COMPS:BGC:1,2016-04-01T14:54:00Z,26.4040,-81.8810,69.71,1111122 
COMPS,ioos:station:USF.COMPS:BGC:1,2016-04-01T15:00:00Z,26.4040,-81.8810,70.24,1111122 
COMPS,ioos:station:USF.COMPS:BGC:1,2016-04-01T15:06:00Z,26.4040,-81.8810,69.79,1111122 
COMPS,ioos:station:USF.COMPS:BGC:1,2016-04-01T15:12:00Z,26.4040,-81.8810,69.39,1111122 
COMPS,ioos:station:USF.COMPS:BGC:1,2016-04-01T15:18:00Z,26.4040,-81.8810,70.08,1111122 
COMPS,ioos:station:USF.COMPS:BGC:1,2016-04-01T15:24:00Z,26.4040,-81.8810,70.71,1111122 
COMPS,ioos:station:USF.COMPS:BGC:1,2016-04-01T15:30:00Z,26.4040,-81.8810,70.74,1111122 
COMPS,ioos:station:USF.COMPS:BGC:1,2016-04-01T15:36:00Z,26.4040,-81.8810,71.95,1111122 
COMPS,ioos:station:USF.COMPS:BGC:1,2016-04-01T15:42:00Z,26.4040,-81.8810,71.48,1111122 
COMPS,ioos:station:USF.COMPS:BGC:1,2016-04-01T15:48:00Z,26.4040,-81.8810,70.33,1111122 
COMPS,ioos:station:USF.COMPS:BGC:1,2016-04-01T15:54:00Z,26.4040,-81.8810,70.21,1111122 
COMPS,ioos:station:USF.COMPS:BGC:1,2016-04-01T16:00:00Z,26.4040,-81.8810,70.69,1111122 
COMPS,ioos:station:USF.COMPS:BGC:1,2016-04-01T16:06:00Z,26.4040,-81.8810,71.48,1111122 
COMPS,ioos:station:USF.COMPS:BGC:1,2016-04-01T16:12:00Z,26.4040,-81.8810,72.74,1111122 
COMPS,ioos:station:USF.COMPS:BGC:1,2016-04-01T16:18:00Z,26.4040,-81.8810,74.73,1111122 
COMPS,ioos:station:USF.COMPS:BGC:1,2016-04-01T16:24:00Z,26.4040,-81.8810,75.6,1111122 
COMPS,ioos:station:USF.COMPS:BGC:1,2016-04-01T16:30:00Z,26.4040,-81.8810,74.98,1111122 
COMPS,ioos:station:USF.COMPS:BGC:1,2016-04-01T16:36:00Z,26.4040,-81.8810,73.83,1111122 
COMPS,ioos:station:USF.COMPS:BGC:1,2016-04-01T16:42:00Z,26.4040,-81.8810,74.26,1111122 
COMPS,ioos:station:USF.COMPS:BGC:1,2016-04-01T16:48:00Z,26.4040,-81.8810,75.31,1111122 
COMPS,ioos:station:USF.COMPS:BGC:1,2016-04-01T16:54:00Z,26.4040,-81.8810,75.22,1111122 
COMPS,ioos:station:USF.COMPS:BGC:1,2016-04-01T17:00:00Z,26.4040,-81.8810,74.5,1111122 
COMPS,ioos:station:USF.COMPS:BGC:1,2016-04-01T17:06:00Z,26.4040,-81.8810,74.17,1111122 
COMPS,ioos:station:USF.COMPS:BGC:1,2016-04-01T17:12:00Z,26.4040,-81.8810,74.23,1111122 
COMPS,ioos:station:USF.COMPS:BGC:1,2016-04-01T17:18:00Z,26.4040,-81.8810,74.63,1111122 
COMPS,ioos:station:USF.COMPS:BGC:1,2016-04-01T17:24:00Z,26.4040,-81.8810,75.48,1111122 
COMPS,ioos:station:USF.COMPS:BGC:1,2016-04-01T17:30:00Z,26.4040,-81.8810,74.62,1111122 
COMPS,ioos:station:USF.COMPS:BGC:1,2016-04-01T17:36:00Z,26.4040,-81.8810,74.25,1111122 
COMPS,ioos:station:USF.COMPS:BGC:1,2016-04-01T17:42:00Z,26.4040,-81.8810,73.62,1111122 
COMPS,ioos:station:USF.COMPS:BGC:1,2016-04-01T17:48:00Z,26.4040,-81.8810,73.37,1111122 
COMPS,ioos:station:USF.COMPS:BGC:1,2016-04-01T17:54:00Z,26.4040,-81.8810,73.34,1111122 
COMPS,ioos:station:USF.COMPS:BGC:1,2016-04-01T18:00:00Z,26.4040,-81.8810,73.41,1111122 
COMPS,ioos:station:USF.COMPS:BGC:1,2016-04-01T18:06:00Z,26.4040,-81.8810,74.71,1111122 
COMPS,ioos:station:USF.COMPS:BGC:1,2016-04-01T18:12:00Z,26.4040,-81.8810,75.36,1111122 
COMPS,ioos:station:USF.COMPS:BGC:1,2016-04-01T18:18:00Z,26.4040,-81.8810,75.14,1111122 
COMPS,ioos:station:USF.COMPS:BGC:1,2016-04-01T18:24:00Z,26.4040,-81.8810,75.71,1111122 
COMPS,ioos:station:USF.COMPS:BGC:1,2016-04-01T18:30:00Z,26.4040,-81.8810,76.33,1111122 
COMPS,ioos:station:USF.COMPS:BGC:1,2016-04-01T18:36:00Z,26.4040,-81.8810,76.18,1111122 
COMPS,ioos:station:USF.COMPS:BGC:1,2016-04-01T18:42:00Z,26.4040,-81.8810,77.1,1111122 
COMPS,ioos:station:USF.COMPS:BGC:1,2016-04-01T18:48:00Z,26.4040,-81.8810,76.92,1111122 
COMPS,ioos:station:USF.COMPS:BGC:1,2016-04-01T18:54:00Z,26.4040,-81.8810,76.39,1111122 
COMPS,ioos:station:USF.COMPS:BGC:1,2016-04-01T19:00:00Z,26.4040,-81.8810,75.97,1111122 
COMPS,ioos:station:USF.COMPS:BGC:1,2016-04-01T19:06:00Z,26.4040,-81.8810,75.5,1111122 
COMPS,ioos:station:USF.COMPS:BGC:1,2016-04-01T19:12:00Z,26.4040,-81.8810,76.43,1111122 
COMPS,ioos:station:USF.COMPS:BGC:1,2016-04-01T19:18:00Z,26.4040,-81.8810,77.07,1111122 
COMPS,ioos:station:USF.COMPS:BGC:1,2016-04-01T19:24:00Z,26.4040,-81.8810,79.3,1111122 
COMPS,ioos:station:USF.COMPS:BGC:1,2016-04-01T19:30:00Z,26.4040,-81.8810,80.35,1111122 
COMPS,ioos:station:USF.COMPS:BGC:1,2016-04-01T19:36:00Z,26.4040,-81.8810,81.11,1111122 
COMPS,ioos:station:USF.COMPS:BGC:1,2016-04-01T19:42:00Z,26.4040,-81.8810,80.47,1111122 
COMPS,ioos:station:USF.COMPS:BGC:1,2016-04-01T19:48:00Z,26.4040,-81.8810,81.33,1111122 
COMPS,ioos:station:USF.COMPS:BGC:1,2016-04-01T19:54:00Z,26.4040,-81.8810,79.45,1111122 
COMPS,ioos:station:USF.COMPS:BGC:1,2016-04-01T20:00:00Z,26.4040,-81.8810,79.95,1111122 
COMPS,ioos:station:USF.COMPS:BGC:1,2016-04-01T20:06:00Z,26.4040,-81.8810,80.02,1111122 
COMPS,ioos:station:USF.COMPS:BGC:1,2016-04-01T20:12:00Z,26.4040,-81.8810,78.98,1111122 
COMPS,ioos:station:USF.COMPS:BGC:1,2016-04-01T20:18:00Z,26.4040,-81.8810,79.12,1111122 
COMPS,ioos:station:USF.COMPS:BGC:1,2016-04-01T20:24:00Z,26.4040,-81.8810,79.86,1111122 
COMPS,ioos:station:USF.COMPS:BGC:1,2016-04-01T20:30:00Z,26.4040,-81.8810,78.99,1111122 
COMPS,ioos:station:USF.COMPS:BGC:1,2016-04-01T20:36:00Z,26.4040,-81.8810,77.83,1111122 
COMPS,ioos:station:USF.COMPS:BGC:1,2016-04-01T20:42:00Z,26.4040,-81.8810,77.42,1111122 
COMPS,ioos:station:USF.COMPS:BGC:1,2016-04-01T20:48:00Z,26.4040,-81.8810,76.11,1111122 
COMPS,ioos:station:USF.COMPS:BGC:1,2016-04-01T20:54:00Z,26.4040,-81.8810,75.67,1111122 
COMPS,ioos:station:USF.COMPS:BGC:1,2016-04-01T21:00:00Z,26.4040,-81.8810,75.24,1111122 
COMPS,ioos:station:USF.COMPS:BGC:1,2016-04-01T21:06:00Z,26.4040,-81.8810,73.99,1111122 
COMPS,ioos:station:USF.COMPS:BGC:1,2016-04-01T21:12:00Z,26.4040,-81.8810,72.7,1111122 
COMPS,ioos:station:USF.COMPS:BGC:1,2016-04-01T21:18:00Z,26.4040,-81.8810,72.86,1111122 
COMPS,ioos:station:USF.COMPS:BGC:1,2016-04-01T21:24:00Z,26.4040,-81.8810,72.61,1111122 
COMPS,ioos:station:USF.COMPS:BGC:1,2016-04-01T21:30:00Z,26.4040,-81.8810,72.94,1111122 
COMPS,ioos:station:USF.COMPS:BGC:1,2016-04-01T21:36:00Z,26.4040,-81.8810,72.68,1111122 
COMPS,ioos:station:USF.COMPS:BGC:1,2016-04-01T21:42:00Z,26.4040,-81.8810,73.45,1111122 
COMPS,ioos:station:USF.COMPS:BGC:1,2016-04-01T21:48:00Z,26.4040,-81.8810,73.29,1111122 
COMPS,ioos:station:USF.COMPS:BGC:1,2016-04-01T21:54:00Z,26.4040,-81.8810,73.88,1111122 
COMPS,ioos:station:USF.COMPS:BGC:1,2016-04-01T22:00:00Z,26.4040,-81.8810,73.79,1111122 
COMPS,ioos:station:USF.COMPS:BGC:1,2016-04-01T22:06:00Z,26.4040,-81.8810,73.21,1111122 
COMPS,ioos:station:USF.COMPS:BGC:1,2016-04-01T22:12:00Z,26.4040,-81.8810,73.16,1111122 
COMPS,ioos:station:USF.COMPS:BGC:1,2016-04-01T22:18:00Z,26.4040,-81.8810,73.59,1111122 
COMPS,ioos:station:USF.COMPS:BGC:1,2016-04-01T22:24:00Z,26.4040,-81.8810,71.69,1111122 
COMPS,ioos:station:USF.COMPS:BGC:1,2016-04-01T22:30:00Z,26.4040,-81.8810,71.76,1111122 
COMPS,ioos:station:USF.COMPS:BGC:1,2016-04-01T22:36:00Z,26.4040,-81.8810,71.67,1111122 
COMPS,ioos:station:USF.COMPS:BGC:1,2016-04-01T22:42:00Z,26.4040,-81.8810,70.75,1111122 
COMPS,ioos:station:USF.COMPS:BGC:1,2016-04-01T22:48:00Z,26.4040,-81.8810,70.94,1111122 
COMPS,ioos:station:USF.COMPS:BGC:1,2016-04-01T22:54:00Z,26.4040,-81.8810,71.31,1111122 
COMPS,ioos:station:USF.COMPS:BGC:1,2016-04-01T23:00:00Z,26.4040,-81.8810,72.3,1111122 
COMPS,ioos:station:USF.COMPS:BGC:1,2016-04-01T23:06:00Z,26.4040,-81.8810,73.13,1111122 
COMPS,ioos:station:USF.COMPS:BGC:1,2016-04-01T23:12:00Z,26.4040,-81.8810,73.41,1111122 
COMPS,ioos:station:USF.COMPS:BGC:1,2016-04-01T23:18:00Z,26.4040,-81.8810,73.17,1111122 
COMPS,ioos:station:USF.COMPS:BGC:1,2016-04-01T23:24:00Z,26.4040,-81.8810,72.58,1111122 
COMPS,ioos:station:USF.COMPS:BGC:1,2016-04-01T23:30:00Z,26.4040,-81.8810,73.26,1111122 
COMPS,ioos:station:USF.COMPS:BGC:1,2016-04-01T23:36:00Z,26.4040,-81.8810,73.42,1111122 
COMPS,ioos:station:USF.COMPS:BGC:1,2016-04-01T23:42:00Z,26.4040,-81.8810,73.19,1111122 
COMPS,ioos:station:USF.COMPS:BGC:1,2016-04-01T23:48:00Z,26.4040,-81.8810,73.38,1111122 
COMPS,ioos:station:USF.COMPS:BGC:1,2016-04-01T23:54:00Z,26.4040,-81.8810,73.42,1111122 
COMPS,ioos:station:USF.COMPS:BGC:1,2016-04-02T00:00:00Z,26.4040,-81.8810,72.84,1111122 
COMPS,ioos:station:USF.COMPS:BGC:1,2016-04-02T00:06:00Z,26.4040,-81.8810,72.92,1111122 
COMPS,ioos:station:USF.COMPS:BGC:1,2016-04-02T00:12:00Z,26.4040,-81.8810,72.99,1111122 
COMPS,ioos:station:USF.COMPS:BGC:1,2016-04-02T00:18:00Z,26.4040,-81.8810,73.1,1111122 
COMPS,ioos:station:USF.COMPS:BGC:1,2016-04-02T00:24:00Z,26.4040,-81.8810,72.44,1111122 
COMPS,ioos:station:USF.COMPS:BGC:1,2016-04-02T00:30:00Z,26.4040,-81.8810,71.96,1111122 
COMPS,ioos:station:USF.COMPS:BGC:1,2016-04-02T00:36:00Z,26.4040,-81.8810,71.36,1111122 
COMPS,ioos:station:USF.COMPS:BGC:1,2016-04-02T00:42:00Z,26.4040,-81.8810,70.93,1111122 
COMPS,ioos:station:USF.COMPS:BGC:1,2016-04-02T00:48:00Z,26.4040,-81.8810,71.19,1111122 
COMPS,ioos:station:USF.COMPS:BGC:1,2016-04-02T00:54:00Z,26.4040,-81.8810,71.13,1111122 
COMPS,ioos:station:USF.COMPS:BGC:1,2016-04-02T01:00:00Z,26.4040,-81.8810,69.94,1111122 
COMPS,ioos:station:USF.COMPS:BGC:1,2016-04-02T01:06:00Z,26.4040,-81.8810,67.1,1111122 
COMPS,ioos:station:USF.COMPS:BGC:1,2016-04-02T01:12:00Z,26.4040,-81.8810,65.69,1111122 
COMPS,ioos:station:USF.COMPS:BGC:1,2016-04-02T01:18:00Z,26.4040,-81.8810,66.23,1111122 
COMPS,ioos:station:USF.COMPS:BGC:1,2016-04-02T01:24:00Z,26.4040,-81.8810,67.75,1111122 
COMPS,ioos:station:USF.COMPS:BGC:1,2016-04-02T01:30:00Z,26.4040,-81.8810,69.38,1111122 
COMPS,ioos:station:USF.COMPS:BGC:1,2016-04-02T01:36:00Z,26.4040,-81.8810,70.23,1111122 
COMPS,ioos:station:USF.COMPS:BGC:1,2016-04-02T01:42:00Z,26.4040,-81.8810,70.84,1111122 
COMPS,ioos:station:USF.COMPS:BGC:1,2016-04-02T01:48:00Z,26.4040,-81.8810,71.59,1111122 
COMPS,ioos:station:USF.COMPS:BGC:1,2016-04-02T01:54:00Z,26.4040,-81.8810,70.44,1111122 
COMPS,ioos:station:USF.COMPS:BGC:1,2016-04-02T02:00:00Z,26.4040,-81.8810,68.21,1111122 
COMPS,ioos:station:USF.COMPS:BGC:1,2016-04-02T02:06:00Z,26.4040,-81.8810,66.76,1111122 
COMPS,ioos:station:USF.COMPS:BGC:1,2016-04-02T02:12:00Z,26.4040,-81.8810,66.66,1111122 
COMPS,ioos:station:USF.COMPS:BGC:1,2016-04-02T02:18:00Z,26.4040,-81.8810,67.14,1111122 
COMPS,ioos:station:USF.COMPS:BGC:1,2016-04-02T02:24:00Z,26.4040,-81.8810,67.63,1111122 
COMPS,ioos:station:USF.COMPS:BGC:1,2016-04-02T02:30:00Z,26.4040,-81.8810,67.42,1111122 
COMPS,ioos:station:USF.COMPS:BGC:1,2016-04-02T02:36:00Z,26.4040,-81.8810,67.1,1111122 
COMPS,ioos:station:USF.COMPS:BGC:1,2016-04-02T02:42:00Z,26.4040,-81.8810,67.68,1111122 
COMPS,ioos:station:USF.COMPS:BGC:1,2016-04-02T02:48:00Z,26.4040,-81.8810,67.98,1111122 
COMPS,ioos:station:USF.COMPS:BGC:1,2016-04-02T02:54:00Z,26.4040,-81.8810,68.33,1111122 
COMPS,ioos:station:USF.COMPS:BGC:1,2016-04-02T03:00:00Z,26.4040,-81.8810,68.85,1111122 